Clinton, AR

11:06 AM CST on November 13, 2019 (GMT -0600)
Clinton

Weather History for KCCA - September, 2019

Change the Weather History Date:

Thursday, September 19, 2019

  Actual Average (WUND) Record (WUND)
Temperature  
Mean Temperature 80 °F -  
Max Temperature 91 °F - - (-1)
Min Temperature 68 °F - - (-1)
Cooling Degree Days 14    
Growing Degree Days 30 (Base 50)    
Moisture  
Dew Point 70 °F    
Average Humidity 86    
Maximum Humidity 100    
Minimum Humidity 49    
Precipitation  
Precipitation 0.00 in - - ()
Sea Level Pressure  
Sea Level Pressure 30.01 in    
Wind  
Wind Speed 1 mph ()    
Max Wind Speed 9 mph    
Max Gust Speed 15 mph    
Visibility 9.0 miles    
Events Rain , Thunderstorm    
Averages and records for this station are not official NWS values.
T = Trace of Precipitation, MM = Missing Value Source: Averaged Metar Reports

Daily Weather History Graph

Daily Weather History Graph

Search for Another Location

Airport or City:

Astronomy

Sep. 19, 2019 Rise Set
Actual Time 6:55 AM CDT 7:11 PM CDT
Civil Twilight 6:29 AM CDT 7:36 PM CDT
Nautical Twilight 5:59 AM CDT 8:06 PM CDT
Astronomical Twilight 5:29 AM CDT 8:36 PM CDT
Moon 10:31 PM CDT (9/19) 11:49 AM CDT (9/19)
Length of Visible Light 13h 06m
Length of Day
12h 15m
Waning Gibbous, 74% of the Moon is Illuminated
Sep 19
Waning Gibbous
Sep 21
Last Quarter
Sep 28
New
Oct 5
First Quarter
Oct 13
Full

Hourly Weather History & Observations

Time (CDT) Temp. Heat Index Dew Point Humidity Pressure Visibility Wind Dir Wind Speed Gust Speed Precip Events Conditions
12:35 AM 69.8 °F - 68.0 °F 94% 30.00 in 10.0 mi Calm Calm - N/A   Mostly Cloudy
12:55 AM 69.8 °F - 68.0 °F 94% 30.00 in 10.0 mi Calm Calm - N/A   Overcast
1:15 AM 69.8 °F - 68.0 °F 94% 30.00 in 10.0 mi Calm Calm - N/A   Mostly Cloudy
1:35 AM 68.0 °F - 68.0 °F 100% 30.00 in 10.0 mi Calm Calm - N/A   Partly Cloudy
1:55 AM 68.0 °F - 68.0 °F 100% 30.00 in 10.0 mi Calm Calm - N/A   Mostly Cloudy
2:15 AM 68.0 °F - 68.0 °F 100% 30.00 in 10.0 mi NNE 3.5 mph - N/A   Scattered Clouds
2:35 AM 68.0 °F - 68.0 °F 100% 30.00 in 10.0 mi Calm Calm - N/A   Mostly Cloudy
3:15 AM 68.0 °F - 68.0 °F 100% 29.99 in 10.0 mi Calm Calm - N/A   Clear
3:35 AM 68.0 °F - 66.2 °F 94% 29.99 in 10.0 mi Calm Calm - N/A   Clear
3:55 AM 68.0 °F - 66.2 °F 94% 29.99 in 10.0 mi Calm Calm - N/A   Clear
4:15 AM 68.0 °F - 66.2 °F 94% 29.99 in 10.0 mi Calm Calm - N/A   Clear
4:35 AM 68.0 °F - 66.2 °F 94% 29.99 in 10.0 mi Calm Calm - N/A   Clear
4:55 AM 68.0 °F - 66.2 °F 94% 29.99 in 10.0 mi Calm Calm - N/A   Clear
5:15 AM 68.0 °F - 66.2 °F 94% 30.00 in 10.0 mi Calm Calm - N/A   Mostly Cloudy
5:35 AM 68.0 °F - 66.2 °F 94% 30.00 in 10.0 mi Calm Calm - N/A   Scattered Clouds
5:55 AM 68.0 °F - 66.2 °F 94% 30.00 in 9.0 mi Calm Calm - N/A   Clear
6:15 AM 68.0 °F - 66.2 °F 94% 30.00 in 9.0 mi Calm Calm - N/A   Clear
6:55 AM 68.0 °F - 66.2 °F 94% 30.01 in 10.0 mi Calm Calm - N/A   Clear
7:15 AM 68.0 °F - 66.2 °F 94% 30.02 in 10.0 mi Calm Calm - N/A   Partly Cloudy
7:35 AM 68.0 °F - 68.0 °F 100% 30.02 in 10.0 mi Calm Calm - N/A   Clear
7:55 AM 69.8 °F - 68.0 °F 94% 30.02 in 10.0 mi Calm Calm - N/A   Clear
8:15 AM 69.8 °F - 68.0 °F 94% 30.02 in 10.0 mi Calm Calm - N/A   Clear
8:55 AM 73.4 °F - 68.0 °F 83% 30.02 in 10.0 mi Calm Calm - N/A   Clear
9:15 AM 75.2 °F - 69.8 °F 83% 30.03 in 10.0 mi Calm Calm - N/A   Clear
9:35 AM 78.8 °F - 71.6 °F 78% 30.03 in 10.0 mi Calm Calm - N/A   Clear
10:15 AM 82.4 °F 86.3 °F 69.8 °F 66% 30.04 in 10.0 mi Calm Calm - N/A   Clear
10:35 AM 84.2 °F 89.6 °F 71.6 °F 66% 30.04 in 10.0 mi Calm Calm - N/A   Clear
10:55 AM 86.0 °F 91.8 °F 71.6 °F 62% 30.04 in 10.0 mi Calm Calm - N/A   Clear
11:15 AM 86.0 °F 91.8 °F 71.6 °F 62% 30.04 in 10.0 mi Calm Calm - N/A   Clear
11:35 AM 87.8 °F 93.8 °F 71.6 °F 58% 30.03 in 10.0 mi Variable 3.5 mph - N/A   Clear
11:55 AM 89.6 °F 94.7 °F 69.8 °F 52% 30.03 in 10.0 mi Calm Calm - N/A   Clear
12:15 PM 89.6 °F 94.7 °F 69.8 °F 52% 30.03 in 10.0 mi Variable 3.5 mph - N/A   Clear
12:35 PM 91.4 °F 96.8 °F 69.8 °F 49% 30.02 in 10.0 mi SE 4.6 mph - N/A   Clear
12:55 PM 91.4 °F 96.8 °F 69.8 °F 49% 30.02 in 10.0 mi Calm Calm - N/A   Clear
1:15 PM 91.4 °F 96.8 °F 69.8 °F 49% 30.01 in 10.0 mi Calm Calm - N/A   Clear
1:35 PM 91.4 °F 96.8 °F 69.8 °F 49% 30.00 in 10.0 mi Variable 4.6 mph - N/A   Clear
1:55 PM 89.6 °F 98.2 °F 73.4 °F 59% 30.00 in 10.0 mi Calm Calm - N/A   Partly Cloudy
2:15 PM 84.2 °F 88.4 °F 69.8 °F 62% 30.00 in 10.0 mi WSW 9.2 mph 15.0 mph N/A   Light Drizzle
2:35 PM 82.4 °F 85.4 °F 68.0 °F 62% 29.99 in 10.0 mi WNW 5.8 mph - N/A   Clear
2:55 PM 84.2 °F 88.4 °F 69.8 °F 62% 29.99 in 10.0 mi NW 4.6 mph - N/A   Clear
3:15 PM 89.6 °F 94.7 °F 69.8 °F 52% 29.97 in 10.0 mi Variable 4.6 mph - N/A   Clear
3:35 PM 84.2 °F 88.4 °F 69.8 °F 62% 29.99 in 6.0 mi Variable 4.6 mph 11.5 mph N/A Rain Rain
3:55 PM 78.8 °F - 69.8 °F 74% 29.99 in 10.0 mi Variable 3.5 mph - N/A Thunderstorm Drizzle
4:15 PM 75.2 °F - 73.4 °F 94% 30.03 in 2.0 mi SSW 9.2 mph - N/A Thunderstorm Thunderstorm
4:35 PM 73.4 °F - 71.6 °F 94% 30.01 in 1.8 mi Variable 4.6 mph - N/A Rain , Thunderstorm Thunderstorms and Rain
4:55 PM 73.4 °F - 71.6 °F 94% 30.02 in 5.0 mi South 4.6 mph - N/A   Light Drizzle
5:15 PM 73.4 °F - 71.6 °F 94% 30.00 in 8.0 mi North 4.6 mph - N/A   Light Drizzle
5:35 PM 73.4 °F - 73.4 °F 100% 30.01 in 10.0 mi Variable 3.5 mph - N/A   Clear
5:55 PM 73.4 °F - 71.6 °F 94% 30.00 in 10.0 mi Calm Calm - N/A   Clear
6:15 PM 73.4 °F - 73.4 °F 100% 29.99 in 10.0 mi Calm Calm - N/A   Clear
6:35 PM 73.4 °F - 73.4 °F 100% 29.99 in 10.0 mi Calm Calm - N/A   Clear
6:55 PM 73.4 °F - 73.4 °F 100% 29.99 in 10.0 mi Calm Calm - N/A   Clear
7:15 PM 73.4 °F - 73.4 °F 100% 29.99 in 3.0 mi Calm Calm - N/A   Clear
7:35 PM 73.4 °F - 71.6 °F 94% 29.98 in 1.5 mi Calm Calm - N/A   Scattered Clouds
7:55 PM 73.4 °F - 71.6 °F 94% 29.99 in 0.5 mi Calm Calm - N/A   Mostly Cloudy
8:35 PM 71.6 °F - 71.6 °F 100% 29.99 in 10.0 mi Calm Calm - N/A   Mostly Cloudy
8:55 PM 71.6 °F - 71.6 °F 100% 30.01 in 9.0 mi Calm Calm - N/A   Overcast
9:15 PM 71.6 °F - 71.6 °F 100% 30.02 in 10.0 mi Calm Calm - N/A   Overcast
9:35 PM 73.4 °F - 71.6 °F 94% 30.03 in 9.0 mi Calm Calm - N/A   Overcast
9:55 PM 71.6 °F - 71.6 °F 100% 30.04 in 5.0 mi Calm Calm - N/A   Overcast
10:15 PM 71.6 °F - 71.6 °F 100% 30.05 in 9.0 mi Calm Calm - N/A   Overcast
10:35 PM 71.6 °F - 71.6 °F 100% 30.05 in 9.0 mi Calm Calm - N/A   Overcast
10:55 PM 71.6 °F - 71.6 °F 100% 30.04 in 10.0 mi Calm Calm - N/A   Mostly Cloudy
11:15 PM 71.6 °F - 71.6 °F 100% 30.05 in 10.0 mi Calm Calm - N/A   Partly Cloudy
11:35 PM 71.6 °F - 71.6 °F 100% 30.04 in 10.0 mi Calm Calm - N/A   Clear
11:55 PM 71.6 °F - 71.6 °F 100% 30.04 in 7.0 mi Calm Calm - N/A   Partly Cloudy